Brownings Landing, Northwest Territories

11:39 AM MDT on June 28, 2017 (GMT -0600)
Fort Simpson | | Change Station

Elev 554 ft 61.75 °N, 121.23 °W | Updated 39 minutes ago

Overcast
Overcast
70 °F
Feels Like 70 °F
N
2
Wind Variable Wind from SSE

Today
High -- | Low -- °F
--% Chance of Precip.
Yesterday
High -- | Low -- °F
Precip. -- in
Pressure 29.87 in
Visibility 15.0 miles
Clouds Few 5000 ft
Scattered Clouds 21000 ft
Dew Point 55 °F
Humidity 60%
Rainfall 0.00 in
Snow Depth Not available.
4:23 AM 11:41 PM
Waxing Crescent, 27% visible
METAR CYFS 281700Z 15002KT 15SM FEW050 SCT210 21/13 A2985 RMK CU1CI2 SLP113 DENSITY ALT 1500FT
Pressure 29.87 in
Visibility 15.0 miles
Clouds Few 5000 ft
Scattered Clouds 21000 ft
Dew Point 55 °F
Humidity 60%
Rainfall 0.00 in
Snow Depth Not available.
4:23 AM 11:41 PM
Waxing Crescent, 27% visible
METAR CYFS 281700Z 15002KT 15SM FEW050 SCT210 21/13 A2985 RMK CU1CI2 SLP113 DENSITY ALT 1500FT

Get Severe Weather Alerts

Thanks for signing up!

Be on the lookout for a verification email in your inbox.

You'll start receiving the daily forecast at 6 AM.

×

10-Day Weather Forecast

Almanac

Astronomy

Jun. 28, 2017 Rise Set
Actual Time
Civil Twilight
Nautical Twilight
Astronomical Twilight
Moon
Length of Visible Light
Length of Day
Tomorrow will be .
, % of the Moon is Illuminated

Today's Extremes

Country Highs Country Lows

Community

WunderPhotos

Category 6

Welcome to Category 6. This is the collective home for Weather Underground's featured writeups by Dr. Jeff Masters (right), Bob Henson (left), Chris Burt, and other regular contributors.

Nearby

Air Quality

  Air Quality AQ Index Pollutant
Not available.

Snow Depth

Station Depth Elevation

Earthquake Activity

City Distance Mag. Time & Date
Minimum magnitude displayed is 2.5.

Coastal Water Temperatures

Place Temperature

Stations

Nearby Weather Stations

Station Location Temp. Windchill Dew Point Humidity Wind Precip. Elev Updated Type
                   

Watches & Warnings

There are currently no watches in effect.